[[{"header":{"parameterUnit":"m.s-1","parameterCategory":1,"la1":30.2991,"la2":30.254,"lo1":-89.0895,"lo2":-89.0444,"dy":0.0017,"dx":0.0017,"nx":28,"ny":28,"refTime":"2023-09-23T21:00:00:Z","depth":0,"parameterNumber":2,"parameterNumberName":"U-component_of_WINDS"},"data":[0,0,0,0,0,0,0,0,0,0,0,0,0,0,0,0,0,0,0,0,0,0,0,0,0,0,0,0,0,0,0,0,0,0,0,0,0,0,0,0,0,0,0,0,0,0,0,0,0,0,0,0,0,0,0,0,0,0,0.9458,0.9458,0,0.9407,0.9407,0.9406,0.9377,0.9377,0.9377,0.9377,0.9324,0.9323,0.9322,0,0,0,0,0,0,0,0,0,0,0,0,0,0.9528,0.9527,0.9458,0.9458,0.9457,0.9408,0.9407,0.9406,0.9377,0.9377,0.9377,0.9377,0.9325,0.9323,0.9322,0,0,0,0,0,0,0,0,0,0,0,0,0,0.9489,0.9526,0.9458,0.9437,0.9434,0.9408,0.9407,0.9406,0.9377,0.9377,0.9377,0.9377,0.9325,0.9323,0.9322,0.9313,0,0,0.9316,0.9315,0,0,0,0,0,0,0,0,0.9491,0.9487,0.944,0.9438,0.9435,0.9398,0.9412,0.9375,0.9377,0.9399,0.9377,0.9377,0.9349,0.9345,0.9336,0.931,0.9308,0.9315,0.9314,0.9313,0.9313,0,0,0,0,0,0,0,0.9494,0.9489,0.9438,0.944,0.9437,0.9428,0.9423,0.9405,0.9375,0.9397,0.9395,0.9389,0.9348,0.9338,0.9335,0.9307,0.9315,0.9314,0.9313,0.9312,0.9268,0.9268,0,0,0,0,0,0,0.9501,0.9491,0.944,0.9437,0.9464,0.9427,0.9421,0.941,0.9376,0.937,0.9389,0.9388,0.9341,0.9337,0.9333,0.9318,0.9313,0.9312,0.931,0.9268,0.9268,0.9268,0,0,0,0,0,0,0.9502,0.9496,0.9442,0.9463,0.9456,0.9426,0.9415,0.9409,0.94,0.937,0.9364,0.9385,0.9341,0.9335,0.9317,0.9316,0.9311,0.9309,0.9268,0.9268,0.9268,0.9289,0,0,0,0,0,0,0.9504,0.9497,0.9494,0.9463,0.9455,0.9428,0.9415,0.9409,0.9397,0.9394,0.9364,0.9359,0.9341,0.932,0.9315,0.9313,0.9307,0.9268,0.9268,0.9268,0.9289,0.929,0.9291,0,0,0,0,0,0.9507,0.9503,0.9494,0.9488,0.9451,0.9428,0.9423,0.9402,0.9397,0.9393,0.9373,0.936,0.9317,0.9319,0.9313,0.931,0.9268,0.9268,0.9268,0.9288,0.929,0.9291,0,0,0,0,0,0,0.9535,0.9498,0.9489,0.9475,0.9454,0.9423,0.9418,0.9405,0.9386,0.9385,0.9359,0.9352,0.9336,0.9321,0.9324,0.9298,0.9291,0.929,0.9308,0.9309,0.9311,0.9314,0.9306,0,0,0,0,0,0.9539,0.9524,0.9493,0.9484,0.9474,0.9448,0.9437,0.9422,0.9401,0.9392,0.9371,0.935,0.9331,0.932,0.9301,0.9286,0.9278,0.9281,0.9283,0.9284,0.9283,0.9271,0.9271,0.9268,0.9268,0.9268,0,0,0.9548,0.9527,0.9519,0.9489,0.9472,0.9456,0.9441,0.9426,0.9413,0.939,0.9371,0.9354,0.9329,0.9312,0.9303,0.9299,0.9282,0.9284,0.9285,0.9283,0.9271,0.9272,0.9272,0.9268,0.9268,0.9268,0,0,0.9557,0.954,0.9529,0.9511,0.9485,0.9467,0.9464,0.9434,0.9422,0.9403,0.9384,0.9368,0.9337,0.9319,0.9306,0.9304,0.9291,0.9299,0.9306,0.9294,0.9295,0.9295,0.9292,0.9292,0.9298,0.9298,0.9298,0,0.9571,0.9547,0.9525,0.9509,0.9496,0.9473,0.9461,0.9445,0.9414,0.9404,0.94,0.9358,0.934,0.9317,0.9316,0.9307,0.9301,0.9302,0.9297,0.9296,0.9296,0.9293,0.9293,0.9299,0.9299,0.9299,0.9299,0,0.9565,0.9549,0.9543,0.9513,0.9498,0.9485,0.9459,0.9447,0.9433,0.9415,0.9393,0.937,0.9345,0.9338,0.9325,0.9312,0.931,0.9302,0.9294,0.9298,0.9295,0.9294,0.9301,0.93,0.93,0.93,0,0,0.9591,0.9547,0.9545,0.9529,0.9498,0.9484,0.9468,0.9443,0.9432,0.9411,0.9396,0.9369,0.936,0.9345,0.9329,0.9319,0.9316,0.9311,0.931,0.9312,0.9298,0.9304,0.9304,0.9307,0.9307,0.9307,0.93,0,0.9593,0.9564,0.9542,0.9521,0.9504,0.9481,0.9467,0.9446,0.9428,0.941,0.939,0.937,0.9361,0.9351,0.9341,0.9319,0.9313,0.9319,0.9292,0.9291,0.9298,0.9302,0.9309,0.9304,0.9299,0.9299,0.9298,0,0.9592,0.9571,0.9548,0.9516,0.9508,0.9496,0.947,0.9454,0.9427,0.9415,0.9397,0.9379,0.936,0.9354,0.9326,0.9331,0.9318,0.9305,0.9304,0.93,0.9294,0.9297,0.9302,0.93,0.9297,0.9297,0.9297,0,0.9611,0.9576,0.9558,0.9546,0.9508,0.9499,0.9483,0.9457,0.9442,0.9419,0.9409,0.9385,0.9371,0.9351,0.9327,0.9325,0.93,0.9293,0.9288,0.9288,0.9283,0.9284,0.9285,0.9277,0.9277,0.9277,0.9277,0,0.9615,0.9602,0.9565,0.9554,0.9537,0.9511,0.9495,0.9477,0.9453,0.9436,0.9415,0.9399,0.9369,0.9349,0.933,0.9308,0.9303,0.9291,0.9285,0.9292,0.9293,0.9283,0.9282,0.9277,0.9277,0.9277,0.9277,0,0.9633,0.9608,0.9586,0.9551,0.9542,0.9531,0.9501,0.9488,0.9468,0.9447,0.944,0.9409,0.9385,0.9359,0.9326,0.9312,0.9291,0.9284,0.93,0.9296,0.9292,0.9292,0.9285,0.9282,0.9278,0.9278,0.9278,0,0.9637,0.9626,0.9589,0.9577,0.9561,0.9541,0.9525,0.9499,0.9483,0.9451,0.9441,0.9415,0.9393,0.9354,0.9328,0.9302,0.9294,0.9293,0.929,0.9295,0.9291,0.9292,0.929,0.9294,0.9294,0.9294,0.9294,0,0.9645,0.9633,0.9612,0.9586,0.9569,0.9547,0.9524,0.9515,0.9483,0.9467,0.9441,0.9424,0.9389,0.9362,0.9332,0.9314,0.9298,0.9296,0.9293,0.9299,0.9307,0.9301,0.9301,0.9296,0.9296,0.9296,0.9295,0.9295,0.9655,0.9643,0.9615,0.9592,0.9572,0.9551,0.9536,0.9514,0.9492,0.9462,0.9447,0.9421,0.9392,0.935,0.9332,0.931,0.9306,0.9302,0.9301,0.93,0.9301,0.9311,0.9305,0.9305,0.9305,0.9305,0.9305,0,0.9661,0.9642,0.9621,0.9589,0.957,0.9557,0.953,0.9515,0.9492,0.9467,0.9445,0.9414,0.9388,0.9359,0.933,0.9318,0.9309,0.9311,0.9311,0.9307,0.9307,0.9312,0.9318,0.9318,0.9318,0.9318,0.9318,0.9318,0.9662,0.9641,0.9625,0.9592,0.9572,0.9547,0.9532,0.9512,0.9491,0.9458,0.9436,0.9417,0.9389,0.9358,0.9332,0.9324,0.9314,0.9317,0.9307,0.9308,0.9307,0.9306,0.931,0.9315,0.9315,0.9307,0.9307,0.9307]},{"header":{"parameterUnit":"m.s-1","parameterCategory":1,"la1":30.2991,"la2":30.254,"lo1":-89.0895,"lo2":-89.0444,"dy":0.0017,"dx":0.0017,"nx":28,"ny":28,"refTime":"2023-09-23T21:00:00:Z","depth":0,"parameterNumber":3,"parameterNumberName":"V-component_of_WINDS"},"data":[0,0,0,0,0,0,0,0,0,0,0,0,0,0,0,0,0,0,0,0,0,0,0,0,0,0,0,0,0,0,0,0,0,0,0,0,0,0,0,0,0,0,0,0,0,0,0,0,0,0,0,0,0,0,0,0,0,0,2.5136,2.5136,0,2.5168,2.5168,2.5169,2.514,2.5139,2.5138,2.5136,2.5168,2.517,2.5172,0,0,0,0,0,0,0,0,0,0,0,0,0,2.5045,2.5047,2.5136,2.5136,2.5136,2.5168,2.5168,2.5169,2.514,2.5139,2.5137,2.5136,2.5167,2.5169,2.5172,0,0,0,0,0,0,0,0,0,0,0,0,0,2.5081,2.5047,2.5136,2.5126,2.5125,2.5168,2.5169,2.5169,2.514,2.5139,2.5137,2.5135,2.5166,2.5169,2.5172,2.5225,0,0,2.5181,2.5182,0,0,0,0,0,0,0,0,2.5079,2.5085,2.5127,2.5127,2.5126,2.5148,2.5148,2.5188,2.5141,2.5135,2.5136,2.5134,2.5163,2.5166,2.5176,2.5227,2.5228,2.5181,2.5183,2.5184,2.5185,0,0,0,0,0,0,0,2.5077,2.5083,2.5148,2.5127,2.5127,2.5119,2.5122,2.5155,2.5158,2.5135,2.5133,2.5137,2.5162,2.5173,2.5176,2.5229,2.5181,2.5184,2.5185,2.5187,2.5322,2.5323,0,0,0,0,0,0,2.5076,2.5081,2.5147,2.5149,2.5098,2.5122,2.5125,2.5143,2.5158,2.5158,2.5139,2.5136,2.5169,2.5173,2.5177,2.5238,2.5184,2.5187,2.5189,2.532,2.5322,2.5324,0,0,0,0,0,0,2.5074,2.5082,2.5146,2.5115,2.5122,2.5125,2.5145,2.5144,2.5155,2.5161,2.5161,2.515,2.5168,2.5173,2.5213,2.5239,2.5188,2.5191,2.5318,2.532,2.5323,2.5362,0,0,0,0,0,0,2.5072,2.5082,2.5103,2.5116,2.5124,2.5183,2.5147,2.5146,2.5161,2.5157,2.5171,2.5171,2.5167,2.5209,2.5216,2.5242,2.5193,2.5315,2.5319,2.5322,2.5358,2.5365,2.5372,0,0,0,0,0,2.5068,2.5113,2.5104,2.5112,2.5151,2.5184,2.5189,2.5183,2.5163,2.5183,2.5186,2.5171,2.5235,2.5213,2.5221,2.5248,2.5314,2.5318,2.5322,2.5355,2.5364,2.5371,0,0,0,0,0,0,2.5103,2.5114,2.5105,2.5155,2.5169,2.5179,2.5205,2.5193,2.5213,2.5209,2.52,2.5203,2.5245,2.5251,2.5226,2.5299,2.5271,2.5277,2.5293,2.5302,2.5309,2.5305,2.5196,0,0,0,0,0,2.5117,2.5143,2.5152,2.5195,2.5202,2.5203,2.5217,2.5211,2.5225,2.523,2.5236,2.525,2.5272,2.5288,2.5309,2.5359,2.536,2.5381,2.5388,2.5394,2.5398,2.5422,2.5431,2.5338,2.5338,2.5338,0,0,2.5145,2.5154,2.5172,2.5202,2.5212,2.5238,2.5208,2.5238,2.5257,2.5235,2.5272,2.5277,2.5291,2.5335,2.5355,2.5341,2.5424,2.5399,2.5403,2.5405,2.5427,2.5436,2.5444,2.5341,2.534,2.534,0,0,2.5209,2.522,2.5255,2.5266,2.5281,2.5281,2.5289,2.5301,2.5303,2.5341,2.5324,2.5346,2.5387,2.5397,2.5407,2.5472,2.5458,2.548,2.5515,2.5538,2.5545,2.5551,2.5572,2.558,2.5485,2.5485,2.5485,0,2.5241,2.5282,2.5275,2.5306,2.5318,2.53,2.5334,2.5345,2.5366,2.5375,2.5359,2.5408,2.5416,2.5461,2.5477,2.5487,2.5494,2.5477,2.5545,2.5551,2.5557,2.5577,2.5585,2.5487,2.5487,2.5487,2.5486,0,2.5319,2.5347,2.5374,2.5395,2.5411,2.5443,2.544,2.5457,2.5449,2.545,2.5487,2.5496,2.5518,2.5529,2.5522,2.5572,2.5562,2.5546,2.5518,2.5568,2.5586,2.5594,2.549,2.549,2.5489,2.5488,0,0,2.5407,2.5422,2.5432,2.544,2.5454,2.5475,2.5506,2.5527,2.554,2.5556,2.5579,2.5613,2.5597,2.5609,2.5603,2.5624,2.5672,2.5605,2.5605,2.5615,2.5724,2.5734,2.5743,2.5663,2.5664,2.5665,2.5722,0,2.5469,2.5523,2.5517,2.5567,2.5591,2.5573,2.5599,2.561,2.5612,2.5631,2.5632,2.5655,2.5634,2.564,2.566,2.5662,2.5693,2.5658,2.5683,2.5684,2.5678,2.5753,2.5765,2.5818,2.5729,2.573,2.5731,0,2.555,2.5567,2.5619,2.5628,2.5637,2.5661,2.5679,2.5699,2.571,2.5709,2.5721,2.5711,2.574,2.5712,2.575,2.5726,2.5736,2.5738,2.574,2.5741,2.5709,2.5754,2.5835,2.5842,2.5743,2.5742,2.5741,0,2.5604,2.5641,2.5676,2.5684,2.5695,2.5712,2.5717,2.5727,2.5739,2.5755,2.5762,2.5781,2.579,2.5804,2.5799,2.5779,2.5837,2.581,2.5836,2.5836,2.5847,2.5846,2.5929,2.5858,2.5857,2.5857,2.5857,0,2.5674,2.5706,2.57,2.5722,2.5757,2.5749,2.5784,2.5787,2.5795,2.5816,2.5802,2.5821,2.5814,2.5832,2.5828,2.5859,2.5864,2.5863,2.5861,2.5863,2.5863,2.5868,2.5863,2.5859,2.5859,2.5858,2.5858,0,2.574,2.5739,2.5775,2.5783,2.5785,2.581,2.5816,2.5835,2.5835,2.5861,2.5866,2.5865,2.5886,2.5883,2.5906,2.5903,2.5941,2.5936,2.5937,2.5935,2.596,2.5957,2.6048,2.6058,2.5982,2.5983,2.5983,0,2.5784,2.5808,2.5817,2.583,2.5836,2.5857,2.5869,2.5862,2.5875,2.5889,2.5906,2.5925,2.5941,2.5975,2.5976,2.5993,2.5986,2.6017,2.5989,2.5989,2.5984,2.5982,2.5983,2.6022,2.6023,2.6024,2.6024,0,2.586,2.5857,2.5875,2.5892,2.5907,2.592,2.5932,2.5943,2.5937,2.5952,2.5973,2.5984,2.6007,2.6026,2.6042,2.6046,2.6033,2.6033,2.604,2.6041,2.6039,2.6038,2.595,2.6031,2.603,2.603,2.6029,2.6029,2.5915,2.5934,2.5943,2.5963,2.597,2.5981,2.5999,2.6,2.6018,2.6036,2.603,2.6054,2.6062,2.6082,2.6088,2.6105,2.6093,2.6104,2.6106,2.6108,2.6109,2.6038,2.6108,2.6108,2.6108,2.6108,2.6107,0,2.5988,2.5992,2.601,2.6026,2.6041,2.6029,2.604,2.6053,2.6074,2.6083,2.6098,2.6121,2.6138,2.614,2.6157,2.617,2.6164,2.6174,2.6172,2.6173,2.612,2.6112,2.6178,2.6178,2.6178,2.6178,2.6178,2.6178,2.6027,2.6058,2.6056,2.609,2.6094,2.6117,2.6124,2.6133,2.614,2.6166,2.6181,2.6182,2.6187,2.6204,2.6219,2.6219,2.6224,2.6236,2.6234,2.6184,2.6177,2.617,2.6162,2.6238,2.6238,2.6284,2.6285,2.6285]}]]